{"data":{"norad_id":62053,"intl_designator":"2024-216X","name":"STARLINK-32494","alt_names":[],"object_type":"PAYLOAD","status":"ACTIVE","operator":null,"country":"US","launch_date":"2024-11-21","launch_site_code":"AFETR","launch_vehicle":null,"mission":null,"orbit_class":"UNKNOWN","rcs_meters":null,"size_class":null,"mass_kg":null,"dimensions":null,"purposes":["comms"],"wikipedia_slug":null,"has_3d_model":false,"image_url":null,"decayed_at":null,"tle_current":{"epoch":"2026-05-24T20:41:33.832032Z","epoch_age_seconds":80106,"freshness":"FRESH","line1":"1 62053U 24216X   26144.86219713  .00016755  00000+0  61668-3 0  9998","line2":"2 62053  42.9984 193.2030 0002898 270.3370  89.7149 15.27595061 85441","mean_motion":15.27595061,"eccentricity":0.0002898,"inclination_deg":42.9984,"raan_deg":193.203,"arg_perigee_deg":270.337,"mean_anomaly_deg":89.7149,"bstar":0.00061668,"rev_number":8544,"period_min":94.265819310606,"perigee_km":481.01563969669,"apogee_km":484.99235701934,"semimajor_km":6861.140998358,"source":"CELESTRAK","updated_at":"2026-05-25T13:38:19.528497Z"}}}